Theta_e
353 354 355 355 354 355 355 355 356 356 356 355 356 356 356 357 356 354 354 354 353 353 353 353 353 353 352 353 353 352 353 352 352 352 349 349 350 346 344 346 346 346 346 346 347 346 345 345 345 345 344 344 344 343 344 343 342 342 342 342 342 341 341 341 340 340 341 341 341 341 342 341 341 341 342 341 341 342 343 343 343 343 343 343 343
354 354 356 356 356 355 356 356 356 355 355 355 356 356 356 357 357 356 355 354 354 353 353 352 351 352 353 353 351 351 352 352 352 352 351 349 350 349 345 345 346 346 345 346 346 346 345 345 345 345 345 346 345 344 344 343 343 342 342 342 342 342 341 340 340 341 341 341 341 340 341 340 340 340 341 341 341 342 343 343 344 343 344 344 344
355 356 356 356 357 356 355 356 356 355 356 356 356 357 356 357 357 357 356 356 355 354 353 350 351 351 352 351 350 350 350 351 351 351 352 350 350 351 348 345 345 346 346 345 345 346 346 346 346 346 346 346 346 346 345 344 343 343 343 343 343 343 342 342 341 340 341 341 340 340 340 340 340 341 341 342 343 343 343 344 344 344 344 344 344
357 357 357 356 356 356 355 355 355 355 356 356 356 357 356 357 357 357 357 355 354 354 353 349 349 350 351 351 350 350 350 349 350 350 352 351 350 352 352 348 346 346 346 345 345 346 346 346 347 346 346 346 347 347 347 346 345 344 344 345 345 344 343 343 342 341 340 340 340 340 341 342 342 342 343 343 343 343 344 344 344 344 344 344 344
358 358 357 356 356 356 355 355 355 355 355 354 356 357 356 355 355 356 355 353 352 352 352 350 348 350 349 350 350 351 351 350 351 351 352 352 350 351 353 353 350 347 346 345 345 346 346 346 347 346 345 345 346 347 347 347 346 346 345 345 344 344 344 344 344 343 342 341 341 341 342 343 343 343 343 344 344 343 344 344 344 344 344 344 344
359 359 358 356 356 356 355 354 355 357 355 354 356 357 356 355 353 353 353 351 351 350 350 348 348 349 349 349 351 351 352 351 351 352 352 352 351 351 351 352 353 352 350 347 346 346 345 346 346 346 346 346 346 346 346 347 347 346 346 345 345 344 344 344 344 344 343 343 343 343 343 342 343 343 344 344 345 344 344 344 344 344 344 343 342
357 359 359 356 356 355 354 355 355 356 355 355 357 357 357 356 354 353 353 351 351 351 351 349 348 350 350 350 351 353 352 351 351 351 352 352 352 352 351 350 351 352 353 350 347 346 345 346 346 346 346 346 346 345 346 346 346 346 346 346 345 345 345 344 344 344 344 344 344 343 344 344 344 344 345 346 345 345 345 344 344 344 342 341 341
353 357 359 357 356 355 354 356 356 356 356 356 357 357 357 357 355 353 354 353 351 350 350 349 348 347 348 350 351 352 352 352 352 351 352 353 353 352 351 351 350 349 351 351 349 348 345 342 344 346 346 346 346 346 346 346 346 346 346 347 346 347 346 346 345 345 344 344 344 344 345 345 345 345 346 346 345 345 344 344 343 342 341 341 341
353 354 359 357 356 356 355 357 358 357 358 357 356 357 357 356 357 357 357 355 350 346 345 345 345 345 345 348 350 351 351 351 352 352 353 354 353 352 352 352 350 348 350 350 349 350 347 343 341 343 344 345 345 345 345 346 346 346 346 347 347 348 348 347 346 345 346 346 345 345 346 346 346 346 345 345 345 345 344 342 341 340 340 340 335
355 353 359 358 357 357 356 358 359 359 359 357 357 358 357 357 358 358 358 354 348 344 343 343 343 344 344 346 349 350 351 351 352 353 354 354 353 353 352 352 351 350 350 350 349 350 350 347 343 343 344 344 344 345 345 345 345 345 346 347 347 347 348 348 347 347 347 346 347 347 346 346 346 345 345 345 344 343 343 340 336 337 337 330 322
357 355 359 360 357 357 358 359 359 360 360 357 358 358 357 357 357 360 358 352 347 345 344 343 343 344 344 345 350 351 351 352 352 353 354 353 353 353 352 352 352 351 351 351 350 350 351 351 349 348 349 346 343 344 345 346 346 346 346 347 347 347 347 347 348 347 347 347 346 347 346 345 345 345 344 344 344 343 341 336 331 329 326 318 314
358 357 360 361 359 359 360 360 359 360 361 357 358 358 356 357 359 361 358 351 346 345 344 344 343 344 345 346 350 352 352 352 352 353 353 353 353 352 352 352 352 352 351 351 351 350 350 351 350 349 350 348 345 342 342 343 344 345 345 345 346 345 346 347 348 348 347 347 347 346 346 345 344 344 343 342 341 338 334 329 324 320 316 313 314
359 360 361 361 360 360 361 361 359 358 360 358 357 357 354 354 358 361 357 350 346 345 344 344 344 345 345 346 349 351 351 352 353 353 352 352 353 352 352 352 352 351 352 352 351 351 351 351 350 348 348 349 348 344 342 341 342 342 343 343 344 344 345 347 347 347 346 346 347 347 346 345 345 344 342 339 335 330 325 322 319 315 314 314 315
358 359 360 360 361 360 360 361 361 360 362 361 357 355 353 353 356 360 357 349 346 345 344 344 343 344 343 344 347 349 350 351 351 352 352 351 352 351 351 350 350 351 352 352 352 351 350 350 350 348 349 348 348 347 346 345 346 344 341 341 342 342 344 345 347 347 346 346 347 347 346 344 344 341 337 334 328 321 317 315 315 314 314 316 317
358 359 359 360 360 360 359 360 362 362 363 364 361 356 354 354 355 358 356 350 347 347 345 345 344 343 344 345 344 346 348 349 349 350 351 351 351 350 350 351 350 351 351 351 351 351 350 350 349 349 349 349 348 348 348 348 347 344 340 338 339 339 341 343 346 347 346 347 347 347 345 345 343 336 327 323 320 316 315 314 314 314 315 317 319
358 359 359 360 360 360 359 360 361 362 362 365 365 360 358 358 358 359 358 351 347 347 347 345 344 345 345 345 345 345 346 346 345 347 348 349 349 348 349 350 350 351 351 351 350 350 350 350 348 349 350 349 349 348 348 349 346 345 342 338 337 337 338 340 344 346 346 346 346 346 344 343 340 329 318 316 315 314 314 314 314 315 316 319 321
358 359 359 360 360 360 359 359 360 361 361 362 362 361 359 359 360 361 360 354 348 347 347 345 345 347 346 346 348 347 346 345 346 347 347 347 348 348 349 350 351 352 352 351 351 350 350 349 349 350 350 349 349 348 348 349 347 347 347 344 340 336 336 337 340 343 345 345 345 343 339 333 326 319 314 314 315 314 314 315 315 317 318 321 323
358 358 359 359 360 360 359 359 359 359 360 360 360 360 360 359 359 361 360 356 352 347 347 346 346 347 347 346 347 347 347 349 350 350 349 347 347 347 349 349 349 351 351 351 351 350 349 349 349 350 350 350 350 349 349 350 349 348 348 347 344 337 333 334 333 335 340 344 345 343 336 325 317 315 314 315 314 315 315 316 316 318 320 323 324
358 358 359 359 360 360 359 358 358 358 359 359 358 358 359 358 359 360 360 357 354 350 346 346 347 347 346 346 346 347 348 349 350 350 350 349 347 347 346 347 347 348 349 350 349 349 348 348 348 348 349 350 350 350 350 351 349 348 345 341 338 336 334 331 326 325 329 335 340 339 334 325 317 314 315 315 315 315 316 317 317 319 322 324 325
358 358 359 359 360 360 359 358 358 358 357 357 357 356 358 360 360 361 361 359 355 353 349 347 347 346 346 347 347 347 348 349 349 350 350 349 348 347 345 345 345 345 346 347 346 346 346 347 347 347 348 349 350 350 349 351 351 351 349 340 332 332 333 331 323 318 319 323 327 327 323 320 316 315 315 316 316 317 317 318 319 320 322 324 326
358 359 360 360 359 359 359 358 358 358 357 355 354 355 357 360 362 363 361 359 357 355 353 351 348 345 347 348 348 348 348 349 349 350 349 348 347 347 347 345 345 345 345 344 344 345 344 346 347 346 347 348 349 350 349 350 350 352 352 344 332 327 327 327 323 317 316 316 317 318 316 317 316 315 316 317 318 319 320 320 320 321 322 324 326
359 359 360 360 360 359 358 358 358 358 358 356 354 355 356 357 360 361 360 360 359 356 355 354 351 349 348 348 349 348 349 349 349 349 348 349 348 347 345 346 345 345 345 345 345 345 345 345 346 346 347 347 347 349 349 350 350 350 349 342 334 329 325 323 321 318 317 316 316 318 318 318 317 316 317 319 320 321 321 322 322 322 322 323 325
358 359 360 360 360 360 358 357 357 357 358 358 356 355 355 356 357 358 359 359 359 358 357 356 354 353 351 350 350 348 348 348 348 348 348 349 349 348 346 345 345 345 346 347 347 345 345 346 345 346 346 347 347 348 349 350 350 346 342 338 334 332 328 324 322 320 318 317 318 320 321 321 319 319 319 319 321 322 323 323 323 323 323 323 325
358 359 360 360 359 359 358 357 358 358 359 358 358 356 355 355 357 357 358 359 359 358 358 357 355 355 353 350 350 348 347 347 346 346 347 349 350 349 347 345 346 345 345 347 346 345 345 345 345 345 347 347 348 349 351 352 351 346 339 338 337 334 333 330 327 324 321 318 319 320 322 322 321 321 321 321 321 323 323 323 323 323 323 323 324
359 358 359 359 358 359 359 359 358 359 359 359 358 358 357 356 357 357 357 358 358 358 358 357 357 356 354 351 349 349 348 346 346 345 346 346 349 349 348 348 347 346 345 347 347 344 343 343 343 344 346 349 349 350 351 350 351 348 342 340 340 338 336 335 333 331 328 324 322 321 321 322 322 322 322 323 323 323 323 323 323 323 324 323 324
358 358 358 358 359 360 360 360 359 359 359 358 358 359 359 358 357 358 357 358 359 358 358 358 357 357 357 354 352 349 348 347 347 347 345 345 347 349 350 350 348 346 346 349 350 348 344 341 343 344 345 348 350 351 352 350 350 349 344 342 342 340 338 338 337 335 335 333 330 327 325 323 323 322 323 323 324 324 324 324 324 324 324 324 325
357 358 359 359 359 361 360 360 359 359 359 358 358 358 359 359 359 358 358 358 359 360 359 359 358 358 358 357 355 352 350 350 348 348 346 345 347 347 350 351 349 347 347 347 349 350 347 344 342 343 345 346 347 347 346 346 348 346 341 340 342 341 338 338 338 338 337 337 336 335 333 330 327 325 324 323 323 325 325 326 326 326 326 326 326
358 359 361 360 360 360 360 359 359 360 359 358 358 358 359 359 359 360 359 357 359 360 359 359 359 359 358 359 359 355 352 352 350 349 348 348 348 348 348 350 350 350 349 348 349 349 348 346 343 344 345 344 345 345 341 341 344 343 339 338 339 341 340 337 338 338 338 338 337 337 337 336 335 332 330 326 325 325 325 326 327 327 327 328 328
358 359 361 362 361 360 359 358 358 358 359 359 358 359 359 359 359 360 360 358 359 360 359 359 359 358 358 358 359 358 356 355 354 352 352 353 352 351 349 349 350 351 351 351 351 348 347 346 345 347 348 345 344 346 346 346 347 344 342 343 343 344 342 337 337 337 338 339 339 338 338 337 338 336 335 333 330 327 326 326 327 327 328 328 328
357 358 360 361 361 361 360 359 358 359 359 358 358 359 359 359 359 360 361 359 360 360 360 360 359 359 359 358 358 359 357 357 356 354 355 356 356 354 352 351 350 351 351 352 351 350 348 347 346 346 350 349 347 348 348 349 349 345 344 346 347 347 343 339 338 337 338 338 338 339 338 339 339 338 338 337 335 334 331 329 327 327 327 327 328
359 359 360 360 362 362 360 359 358 359 359 359 358 359 358 359 359 358 359 361 361 361 360 360 359 360 360 359 359 359 359 358 357 356 356 357 358 357 356 355 354 353 353 353 352 351 350 349 347 346 348 350 349 349 349 348 348 346 344 345 345 344 341 340 339 339 338 338 338 338 338 338 339 339 338 338 338 337 336 334 332 330 328 328 328
359 360 360 359 361 361 360 358 358 357 359 358 359 360 359 359 359 357 358 359 361 361 360 359 359 360 361 361 361 361 360 359 359 358 357 358 359 359 358 358 357 357 355 355 355 355 352 350 350 349 349 348 349 350 351 350 349 347 345 345 345 343 343 344 344 343 341 341 340 340 339 339 338 338 338 339 339 338 338 337 336 335 333 331 330
359 360 361 360 359 360 359 359 358 357 359 359 358 360 359 359 360 359 358 360 360 360 361 360 359 360 361 363 362 362 361 361 359 358 357 358 359 359 359 359 358 358 358 357 357 357 355 354 353 353 353 352 351 351 351 352 352 352 350 350 350 349 349 349 348 347 346 344 343 342 342 341 341 340 339 339 339 339 339 339 338 337 337 335 334
359 360 361 360 359 360 359 359 360 359 360 361 360 359 359 360 360 359 358 359 359 359 361 361 361 361 362 364 363 362 362 362 361 359 357 357 357 358 359 359 359 358 358 358 358 358 357 356 356 356 355 356 356 355 354 354 353 354 353 353 353 353 353 352 351 351 349 347 346 345 344 344 343 342 341 341 340 339 339 340 339 338 338 338 336
360 360 360 359 360 360 360 360 361 360 361 362 360 359 359 361 362 360 358 359 360 360 361 361 362 362 362 363 362 361 361 363 363 360 358 357 357 357 357 358 358 358 358 360 359 358 358 358 358 357 356 357 357 357 356 356 355 356 355 354 354 354 354 354 353 352 351 349 348 347 347 347 346 344 343 342 342 341 340 340 339 339 339 338 338
360 360 359 359 360 361 362 361 362 362 362 362 361 360 360 361 362 361 360 360 361 361 361 361 362 362 362 363 362 360 360 363 363 362 360 360 360 360 360 360 360 360 360 359 358 357 357 358 358 358 358 358 358 359 359 358 357 357 357 356 356 355 354 354 354 354 353 352 351 352 351 351 350 349 347 345 343 343 342 341 340 340 339 339 338
359 360 360 359 360 362 362 362 362 362 362 362 361 360 360 361 362 361 361 361 361 362 362 361 362 362 362 362 362 360 362 363 363 362 362 362 362 362 361 362 362 361 360 358 357 356 355 356 357 358 359 359 359 360 360 360 360 359 359 358 358 357 356 356 356 356 355 354 353 353 353 353 353 351 350 349 348 346 345 344 342 341 340 340 339
358 359 360 360 359 361 362 362 361 362 362 362 362 360 358 359 361 361 360 361 362 363 362 362 362 362 362 362 362 361 362 362 362 361 362 364 364 363 361 361 362 362 360 359 358 357 356 355 357 358 358 358 358 358 358 359 359 360 360 360 359 358 358 358 357 358 357 356 355 354 353 353 353 352 352 351 351 351 350 349 347 345 344 342 341
358 358 359 360 360 361 362 362 361 362 363 362 362 361 359 358 360 361 361 360 361 363 362 362 361 361 362 362 362 362 362 363 362 361 361 363 363 362 361 362 363 361 359 359 359 358 357 357 357 358 358 358 358 358 358 357 358 358 359 360 360 360 359 359 359 358 358 358 357 357 356 355 354 352 352 351 350 351 351 351 351 350 349 346 344
359 358 358 360 361 361 362 362 361 361 362 363 363 362 361 359 359 361 362 360 360 361 362 362 360 360 360 360 360 362 362 363 362 361 362 363 363 363 363 362 362 361 359 359 358 358 357 357 357 357 357 357 357 357 357 357 358 359 360 360 361 361 360 360 359 358 357 357 357 357 356 356 355 355 354 352 351 351 351 351 351 351 352 350 348
359 358 358 358 361 361 362 362 361 361 362 363 363 361 362 362 360 359 361 361 360 360 361 361 361 360 360 357 356 358 360 361 361 359 359 359 360 362 364 365 364 362 360 358 358 358 357 357 356 356 355 357 356 356 357 357 358 360 361 362 362 362 361 361 360 359 357 356 356 356 356 357 356 356 356 355 354 353 353 352 351 350 351 352 351
360 359 359 359 359 361 361 362 362 362 362 362 361 358 357 359 360 360 360 361 362 361 361 361 360 359 359 358 356 356 356 357 357 353 352 353 353 352 356 360 362 363 361 360 359 358 358 357 357 355 356 356 356 356 357 358 359 360 362 362 363 363 362 361 360 359 357 357 356 356 357 357 356 356 356 356 356 355 354 354 352 351 351 351 351
362 361 361 360 360 360 361 362 363 362 362 361 359 354 351 352 357 360 362 361 362 362 362 361 361 358 357 358 358 358 358 357 354 349 347 347 348 347 347 350 353 358 359 360 360 360 359 358 358 357 357 357 357 358 359 360 361 362 362 363 363 363 362 361 360 359 358 357 357 358 357 357 357 357 356 356 356 356 355 354 354 353 352 351 350
362 362 362 361 360 360 361 362 362 362 363 362 358 352 348 347 348 355 360 361 362 362 362 362 361 360 358 357 358 360 361 360 358 357 354 352 351 350 349 348 350 352 354 357 358 360 360 360 359 359 359 359 360 361 361 362 363 363 364 364 364 363 362 360 360 360 359 358 357 357 357 358 357 357 356 357 356 355 354 352 352 352 351 351 350
363 362 362 362 362 361 361 360 362 362 363 362 358 353 349 347 345 348 355 359 360 361 362 362 362 362 361 361 360 359 361 360 360 360 360 359 358 357 356 354 354 353 353 354 355 356 358 359 360 360 360 360 361 362 362 363 363 363 364 364 363 362 361 360 360 360 360 358 357 356 356 356 355 355 355 355 355 355 353 352 352 352 351 351 350
363 364 363 362 362 363 362 361 362 361 361 362 361 356 353 351 348 348 352 356 357 358 361 362 363 363 363 363 363 362 362 362 362 362 361 361 362 363 362 361 359 357 357 357 357 357 357 358 358 359 360 361 362 362 362 362 362 363 364 363 362 361 360 359 359 358 358 357 355 355 355 354 353 353 354 353 354 354 354 354 353 352 352 351 351
363 364 363 362 363 363 362 362 361 361 360 360 360 358 356 354 352 351 352 355 358 358 359 361 362 363 364 364 364 364 363 363 363 363 364 364 365 365 365 364 363 362 362 362 362 361 359 359 359 358 359 361 361 361 362 361 361 361 362 361 361 359 358 358 357 357 356 356 355 355 355 353 352 352 351 351 352 352 351 352 352 351 351 351 350
363 364 363 363 363 363 363 363 361 361 361 360 359 358 357 356 354 353 353 355 358 358 359 360 361 363 364 365 365 364 364 364 363 361 362 363 364 364 364 363 363 363 363 363 362 362 361 360 359 359 360 360 361 361 361 361 361 360 360 358 358 357 357 357 357 356 355 354 354 354 354 352 351 350 349 349 349 349 350 350 350 350 350 349 349
362 362 363 363 363 362 362 362 363 362 361 360 359 358 357 357 355 354 355 356 358 359 359 360 361 363 364 364 364 365 365 365 363 361 360 360 361 361 362 362 362 362 362 362 362 362 360 360 360 360 360 361 361 362 361 361 360 359 358 356 356 357 357 357 357 355 353 352 351 351 352 351 349 348 347 347 348 348 348 348 348 349 348 348 348
361 362 363 363 363 363 362 362 362 362 362 361 361 358 358 356 355 355 356 357 358 360 361 360 361 362 363 362 362 363 365 365 363 362 361 360 361 362 362 362 362 362 363 363 361 361 361 362 361 362 361 362 362 362 362 361 360 359 358 356 357 358 356 355 354 352 350 350 349 349 349 349 347 346 346 346 347 347 347 348 347 347 348 349 349
360 361 362 363 363 363 362 362 362 362 362 362 361 359 358 356 355 355 356 358 359 360 361 361 361 362 362 362 361 360 361 362 362 362 361 360 361 362 362 362 362 363 363 362 362 362 363 363 364 364 364 363 363 362 361 361 360 360 358 356 356 356 352 351 351 351 348 348 347 346 347 347 346 344 344 344 346 346 346 346 346 347 347 348 349
Wind_Speed
6 6 6 6 6 5 5 5 5 5 5 5 5 4 4 5 4 4 3 3 3 4 5 5 5 5 5 5 5 5 5 5 5 5 6 6 6 6 6 5 5 5 5 4 4 4 4 4 5 5 5 5 4 4 4 4 4 4 4 4 3 3 3 2 3 3 3 3 3 3 2 3 4 4 5 5 6 6 7 8 8 9 9 9 10
5 5 5 5 5 5 5 5 5 5 4 4 4 4 4 4 4 4 3 3 3 4 3 4 4 4 5 5 5 6 5 5 5 5 5 6 6 5 4 4 4 3 4 4 4 4 4 4 4 4 4 4 4 3 3 3 2 2 2 2 1 1 1 1 2 2 2 2 2 2 3 3 4 4 5 6 6 7 7 8 8 8 9 9 10
5 5 4 5 5 5 4 4 4 4 4 4 4 4 4 4 4 4 3 3 3 3 3 3 4 4 5 5 5 5 5 4 4 5 4 5 5 5 4 3 3 3 3 4 4 3 3 4 3 3 3 3 3 2 2 2 1 1 1 1 0 0 1 1 1 2 2 2 2 3 3 3 4 5 5 6 7 7 8 8 9 9 9 9 9
5 4 4 4 4 4 4 4 4 3 4 4 3 3 3 3 3 3 2 2 3 3 1 2 4 3 4 5 5 5 5 4 4 5 4 4 4 5 4 3 3 3 3 3 3 3 3 3 3 3 3 2 3 2 2 2 1 2 2 2 2 2 2 2 1 2 2 3 3 3 4 4 5 5 6 7 7 8 8 8 9 9 9 8 9
4 4 3 3 4 3 3 4 3 3 3 3 3 3 3 3 3 2 2 1 2 3 1 2 4 3 3 5 5 5 5 4 4 4 4 4 4 4 4 3 3 2 3 3 3 2 2 2 2 2 2 2 3 3 2 2 2 3 3 3 3 3 3 3 3 3 3 3 3 4 5 5 6 6 7 7 8 8 8 8 8 8 8 8 8
4 3 3 3 3 3 3 3 3 3 3 3 4 3 3 3 3 2 2 1 2 3 2 3 4 3 3 4 5 5 5 4 4 4 4 3 4 4 4 4 3 3 2 2 2 2 1 1 1 1 2 2 3 3 3 3 4 4 4 4 4 4 4 4 4 4 4 4 5 5 6 6 7 7 7 7 8 8 8 8 7 7 7 7 7
4 3 2 2 2 2 2 2 2 2 3 4 3 3 3 2 2 2 2 1 1 2 2 3 3 3 3 3 4 4 4 4 4 3 4 3 3 4 3 3 3 4 3 2 1 2 1 1 1 1 2 3 3 3 3 4 5 5 5 5 5 5 6 5 5 5 5 5 5 6 6 7 7 6 6 6 7 7 7 7 6 7 7 6 5
4 3 2 1 1 2 2 2 1 1 2 3 3 3 3 2 2 2 1 2 1 2 2 3 3 3 3 3 4 4 3 4 3 3 4 3 3 3 3 3 3 3 3 3 2 2 1 0 1 2 2 2 3 3 3 4 4 5 6 6 6 6 7 7 6 6 6 5 5 6 6 6 6 6 6 6 6 6 6 6 7 7 6 5 4
4 3 2 1 1 1 1 1 0 1 1 1 2 3 3 2 1 1 2 1 1 2 3 3 2 3 3 3 4 4 3 3 3 3 3 3 3 3 3 3 3 3 3 3 2 2 1 1 1 2 2 2 2 2 3 4 4 5 5 5 6 6 7 7 7 6 6 6 6 6 6 6 6 6 6 5 5 6 6 6 7 5 4 3 3
4 4 2 1 1 1 1 1 1 1 1 0 1 2 2 2 1 1 2 1 1 2 3 3 2 2 3 3 3 3 2 2 2 2 2 2 3 3 3 3 3 3 2 2 2 3 2 1 1 2 2 2 2 3 4 4 4 4 4 4 5 5 6 7 7 6 6 6 6 6 6 6 6 6 6 5 6 6 6 6 5 3 2 3 3
5 4 3 2 2 2 1 1 1 1 1 0 1 1 3 2 0 1 2 1 1 2 3 2 2 2 2 2 2 2 2 1 1 2 2 2 3 3 3 3 3 3 3 2 2 3 3 2 2 3 3 3 3 3 4 4 4 4 4 4 4 4 5 5 6 6 6 6 6 6 6 6 6 6 6 6 7 7 6 5 3 1 1 2 2
5 5 4 3 3 2 1 1 1 1 1 0 0 1 2 2 1 1 1 1 1 2 1 1 1 2 2 1 2 3 3 2 1 2 2 2 3 3 3 3 3 3 3 3 3 3 3 3 3 3 3 3 3 4 5 5 5 5 4 4 4 4 5 5 5 6 6 6 6 6 7 6 6 7 7 7 7 6 5 3 1 0 1 1 1
6 6 5 4 4 3 2 2 2 2 1 1 2 2 2 2 2 1 1 0 1 1 1 1 0 0 0 1 2 3 3 3 2 2 2 2 3 3 2 2 3 3 3 3 3 3 3 3 3 2 2 3 3 4 4 5 5 6 5 5 5 5 5 5 6 6 6 6 6 7 7 7 7 7 7 7 6 5 3 2 1 1 1 1 1
7 6 6 6 5 4 3 3 2 2 1 1 2 3 2 3 2 1 1 0 1 1 1 0 1 0 1 1 2 3 3 2 3 3 2 2 2 3 2 2 2 2 2 2 3 3 3 3 2 2 2 2 2 3 4 4 5 6 6 6 6 6 6 6 6 6 6 6 6 7 8 8 7 7 7 6 5 4 2 2 2 3 2 2 1
8 7 7 7 6 5 4 4 3 3 2 2 2 2 3 3 2 1 2 1 2 2 1 1 1 1 0 1 1 2 2 2 3 3 2 3 2 3 3 2 2 2 2 2 3 3 3 3 2 2 2 3 3 3 3 4 6 7 6 7 7 7 7 7 6 6 7 7 7 8 8 8 8 7 6 5 5 3 3 3 3 3 3 2 2
9 8 8 8 7 6 5 4 4 4 3 2 2 1 1 1 1 2 2 1 2 3 2 1 1 1 0 0 1 1 2 1 2 2 2 3 2 2 2 2 2 2 2 3 3 3 3 3 3 3 3 3 3 4 3 4 6 7 6 7 6 6 7 8 7 7 7 7 8 8 9 9 8 6 5 5 4 3 4 4 4 4 4 4 3
10 9 9 8 8 7 6 5 5 5 4 3 2 2 2 2 2 2 2 2 1 2 2 1 1 1 2 2 1 1 2 3 2 2 1 2 2 2 2 2 3 3 3 3 3 4 3 4 4 4 4 4 3 3 3 4 5 5 5 7 7 5 6 7 8 8 7 6 8 10 9 8 6 5 5 4 4 4 5 5 5 5 5 5 5
11 10 9 8 8 8 7 6 5 5 5 4 3 3 3 2 2 2 1 1 1 1 1 2 2 0 1 1 1 1 3 4 3 1 0 0 1 2 2 3 3 3 4 4 4 4 4 4 5 5 5 4 4 4 3 4 4 4 5 7 9 7 6 6 7 8 8 7 9 10 8 7 5 5 5 5 5 6 6 6 6 6 6 6 6
12 11 10 9 9 8 8 7 6 6 6 5 5 4 3 2 2 1 1 1 0 0 1 2 1 0 1 1 1 2 3 4 3 2 1 1 1 1 2 2 3 4 4 4 4 4 4 4 5 5 5 5 5 4 4 4 5 5 5 7 9 9 8 8 7 8 8 8 9 9 10 9 7 7 7 6 7 7 7 7 7 7 7 7 7
13 12 11 11 10 9 8 8 7 6 6 6 6 5 3 3 2 2 2 2 1 1 1 0 0 0 1 1 2 2 3 3 3 3 2 1 1 1 1 1 2 3 3 4 3 3 3 4 5 5 5 5 5 5 4 4 5 6 6 7 7 8 9 9 8 8 9 9 9 10 10 10 9 8 8 8 8 8 8 8 8 8 8 8 7
14 13 12 12 11 10 9 9 8 7 6 6 6 5 5 4 3 3 3 2 2 2 2 2 2 1 1 1 3 2 3 3 2 2 2 2 1 2 1 1 2 2 2 3 3 2 4 4 5 5 5 5 6 5 5 5 5 5 7 9 8 8 9 9 9 9 9 9 10 10 10 10 10 10 10 10 10 10 9 9 9 9 10 9 9
14 14 14 13 12 11 10 10 9 8 7 6 6 6 6 6 5 4 4 3 2 3 3 3 3 2 1 2 3 3 2 2 2 2 1 2 2 3 3 1 1 1 1 2 3 4 5 5 5 6 6 6 6 6 6 6 6 6 8 10 9 9 9 9 10 10 10 10 10 10 11 11 11 11 11 11 11 11 11 11 11 11 11 11 11
13 14 14 14 13 12 11 10 10 9 8 7 6 6 7 7 6 5 5 4 4 3 3 4 4 4 4 4 4 4 3 2 3 2 2 3 3 4 4 4 4 3 1 2 4 5 5 5 6 6 6 7 7 7 7 7 8 9 9 10 10 10 10 10 10 10 10 11 11 12 12 12 12 12 13 13 13 13 13 13 13 13 13 13 13
14 13 14 14 14 13 12 11 11 10 9 8 7 7 7 7 7 6 6 5 5 4 4 4 4 4 5 5 4 4 4 3 4 3 3 4 4 5 5 5 5 4 3 3 4 5 5 5 6 6 6 7 7 8 9 9 10 11 11 11 11 11 10 11 10 10 11 12 12 13 13 14 14 14 14 14 14 15 15 15 15 15 15 15 15
16 15 14 14 14 14 13 12 12 11 11 10 8 8 7 7 7 7 7 6 6 6 6 5 5 5 5 5 4 4 4 4 4 4 4 4 4 5 6 6 6 5 4 4 5 5 4 4 4 5 6 7 8 9 10 10 11 13 13 12 13 13 12 12 12 12 12 12 13 14 14 15 15 16 16 16 16 17 17 17 17 17 17 17 18
17 16 15 14 14 14 14 13 13 12 12 11 10 9 8 8 8 8 8 7 7 7 7 6 6 6 6 5 5 5 4 4 4 4 5 4 4 5 6 6 7 7 5 4 5 5 4 3 3 4 5 6 7 8 10 10 10 14 15 14 15 16 15 14 14 14 14 14 14 15 16 16 17 18 18 19 19 19 19 19 19 19 19 19 19
16 16 15 15 15 14 14 14 14 13 13 13 12 10 10 9 8 8 9 8 8 8 8 7 7 7 7 7 7 6 6 5 5 5 5 5 5 5 5 5 6 6 6 5 5 5 4 4 3 3 4 5 6 7 8 9 10 14 16 15 16 18 19 17 17 17 17 17 17 17 17 18 19 20 20 21 22 21 22 22 22 22 21 21 21
15 15 15 16 16 15 15 15 15 14 14 14 13 11 11 10 9 9 9 9 9 9 9 8 8 8 8 8 8 7 7 6 6 5 5 5 5 6 6 5 5 5 5 5 5 5 4 4 3 3 4 4 4 5 7 8 9 12 14 15 16 19 20 20 19 19 20 20 20 20 21 21 21 22 23 23 24 24 24 24 24 24 24 24 24
15 15 15 16 16 16 15 15 15 15 15 14 14 13 12 11 10 9 10 9 10 10 10 9 9 9 9 9 9 8 7 7 7 6 6 6 6 6 7 7 6 5 5 4 5 6 5 5 4 4 5 6 6 7 9 9 10 12 12 13 15 17 20 21 20 21 21 22 23 24 24 25 25 25 25 26 26 26 26 27 27 27 27 27 27
16 15 15 15 16 16 15 15 15 15 15 15 14 14 13 12 11 10 10 10 10 11 10 10 10 9 9 9 9 9 8 8 8 8 7 7 7 7 7 7 7 7 6 6 6 7 8 7 6 5 6 8 8 9 10 10 12 15 14 13 15 16 18 20 21 21 22 23 25 26 28 28 29 29 29 29 29 29 29 29 29 30 30 30 30
17 16 16 15 15 15 16 15 15 15 16 15 15 15 14 13 12 11 11 10 11 11 11 11 10 10 10 10 10 10 9 9 9 8 8 8 8 8 8 8 8 8 8 8 7 8 9 9 9 9 9 10 11 12 13 12 14 17 17 15 16 17 18 20 21 22 22 23 24 26 28 30 31 32 32 32 32 32 32 32 32 32 32 32 32
18 18 18 17 16 16 16 16 16 16 16 16 15 15 15 14 13 12 11 11 11 12 12 12 11 11 11 11 11 10 10 9 9 9 9 9 10 9 9 9 9 9 10 10 9 10 12 12 13 13 12 12 13 14 15 15 15 17 19 18 18 18 18 19 21 22 23 23 24 25 27 29 31 32 33 34 35 35 35 35 35 35 35 35 35
18 18 18 18 17 17 16 16 16 16 16 16 15 15 15 15 14 13 12 11 12 12 12 12 12 12 12 12 12 12 11 10 10 10 10 10 11 10 10 10 10 10 10 11 12 13 13 13 13 14 13 13 14 14 15 16 15 15 16 18 18 18 18 18 19 21 23 24 24 25 26 28 29 31 32 34 35 36 37 38 38 38 38 38 37
19 19 19 18 18 18 17 17 16 16 16 16 16 15 16 15 15 14 13 13 13 13 13 13 13 13 13 14 13 12 12 12 12 11 11 11 11 11 11 10 11 11 11 12 13 14 14 13 13 14 13 13 14 14 14 16 16 15 15 17 17 17 17 18 19 20 22 25 26 25 25 26 28 29 31 32 33 35 36 37 39 40 40 41 41
19 20 19 19 19 19 18 18 17 17 17 17 16 16 16 16 16 15 14 14 15 15 14 14 14 13 14 14 14 13 12 12 12 12 12 12 12 11 11 11 11 12 12 12 13 14 15 14 12 13 13 12 14 15 15 16 17 16 17 17 16 16 17 18 19 20 22 25 26 26 26 26 27 28 29 31 32 33 34 36 37 39 41 43 44
19 20 20 20 19 19 19 19 18 18 18 18 17 17 17 17 17 16 16 15 16 16 16 15 14 14 14 14 14 13 12 12 13 12 12 12 12 11 12 12 12 12 12 12 14 15 16 15 13 13 13 14 15 15 15 16 17 17 17 17 17 17 17 18 19 21 23 25 26 27 27 27 27 27 28 29 30 32 34 35 36 37 39 41 44
20 20 20 21 20 20 20 20 19 19 19 19 19 18 18 17 17 17 16 16 17 17 16 16 15 15 15 15 14 13 13 13 13 12 12 12 12 11 11 11 11 11 11 12 13 14 16 16 15 13 13 14 15 15 15 15 17 17 17 17 16 17 18 18 19 20 22 24 26 26 26 27 28 28 27 27 27 28 30 33 34 36 38 40 42
22 21 21 21 22 22 21 20 20 20 20 20 20 19 18 17 17 17 16 17 17 17 17 17 16 16 16 16 15 15 15 15 14 13 12 13 12 12 12 12 11 11 11 12 12 13 15 16 16 15 14 14 14 15 14 14 16 17 17 17 16 17 19 19 19 20 20 21 22 22 22 24 26 27 28 27 25 25 25 27 28 31 35 38 39
23 23 22 22 22 22 22 21 21 21 20 20 20 20 20 19 18 17 17 17 17 17 17 17 17 17 17 16 16 16 17 17 16 14 13 13 13 13 13 12 12 11 11 12 12 12 14 14 14 14 14 13 14 15 15 14 16 17 17 17 18 17 18 20 20 19 20 21 21 20 20 22 25 27 28 28 26 25 25 25 24 25 30 34 34
24 24 23 22 22 22 22 22 22 21 21 21 20 21 21 20 19 18 18 17 17 17 16 17 17 17 17 17 17 17 17 18 17 15 14 13 13 13 13 12 12 11 11 11 12 13 13 14 14 13 14 14 14 15 15 15 16 16 15 17 19 20 21 22 21 20 22 22 21 20 19 20 23 25 26 26 25 26 27 28 27 26 30 33 33
24 24 23 22 22 21 22 22 22 21 21 21 21 22 21 21 20 19 18 18 18 17 16 16 17 17 18 18 18 18 18 19 20 19 17 16 14 13 12 12 12 12 12 12 13 13 14 15 15 14 14 14 14 14 15 16 17 17 16 17 19 21 24 24 21 20 21 21 19 19 18 17 21 24 25 25 25 27 30 31 29 31 34 34 32
23 23 23 23 22 21 21 21 21 21 21 21 23 25 24 22 20 19 18 18 17 17 17 17 17 18 18 18 18 19 20 22 24 24 22 21 20 18 16 15 14 13 13 13 14 14 15 15 15 15 14 14 15 15 16 18 20 20 19 18 18 20 25 26 24 20 17 15 17 20 21 20 22 25 26 25 25 27 31 31 30 35 39 38 34
23 23 23 23 23 22 21 21 21 22 22 23 25 28 28 26 22 18 17 17 17 17 18 18 18 18 18 18 18 18 20 23 25 26 26 24 23 22 21 20 19 18 17 16 15 14 15 15 15 15 14 15 15 15 18 20 21 21 20 19 18 18 21 24 24 21 15 12 16 24 29 24 20 25 30 28 26 27 29 30 31 36 42 42 38
24 23 23 23 23 22 21 21 21 22 22 24 27 29 29 29 27 22 18 16 17 17 18 19 19 18 18 18 17 17 18 20 22 22 22 22 22 22 21 20 21 21 21 21 20 18 16 16 16 15 15 16 15 16 17 18 20 22 23 22 19 17 19 22 25 26 20 15 17 25 33 30 21 23 31 30 26 28 30 31 32 35 40 42 42
23 23 23 23 23 23 22 21 22 22 22 23 27 30 30 30 30 27 22 18 17 18 18 18 18 18 18 17 17 17 17 19 20 20 20 20 20 20 20 20 20 21 22 23 24 24 22 20 18 17 16 16 16 17 17 18 20 22 24 26 22 19 20 21 26 31 26 21 23 25 31 33 26 23 28 28 25 27 30 31 31 33 37 39 40
23 23 23 23 23 23 23 22 22 22 21 22 26 29 30 30 29 29 27 22 20 20 19 19 19 18 18 18 18 18 17 18 19 19 19 19 17 17 17 18 19 19 19 19 20 21 22 23 22 21 19 18 18 19 19 19 20 22 23 26 25 23 24 23 25 30 28 24 24 24 27 31 26 22 25 26 25 26 28 30 31 32 35 37 37
23 23 23 23 23 23 23 23 23 23 23 24 25 27 29 29 28 29 28 24 21 21 21 21 20 20 20 19 19 19 18 18 19 19 18 16 15 15 15 15 16 17 17 17 17 17 16 17 18 19 18 18 18 18 19 19 20 21 21 23 26 29 31 27 23 25 27 24 20 19 24 27 24 22 25 25 26 27 28 29 29 30 32 34 36
22 22 23 23 23 24 24 24 24 24 24 25 27 28 28 27 26 27 27 25 22 22 22 22 22 22 21 21 20 20 20 20 21 22 21 18 16 15 16 16 16 17 17 17 17 17 16 15 15 16 17 17 17 17 19 19 19 20 21 24 29 30 27 23 21 21 23 21 16 17 22 26 24 24 27 26 27 29 30 30 29 28 30 33 34
22 22 23 23 24 25 25 25 25 25 24 24 27 29 29 27 26 27 26 23 22 23 23 22 22 22 22 23 22 21 21 22 22 23 23 22 20 18 18 17 17 18 17 17 17 17 18 17 16 17 17 17 17 16 17 18 18 20 22 25 27 24 20 19 20 20 19 18 17 18 21 25 25 27 29 29 27 29 31 31 29 27 29 32 33
24 23 22 22 23 24 25 26 26 25 24 24 26 29 29 29 28 27 25 22 22 23 22 23 22 22 23 25 26 25 23 22 22 22 22 22 21 19 19 18 18 18 17 16 16 15 15 15 14 14 14 14 15 14 15 17 17 18 20 21 19 19 19 18 18 20 20 18 17 16 19 24 25 26 29 30 28 27 27 27 26 25 25 26 28
24 23 22 21 22 23 24 25 26 26 24 23 26 29 30 30 31 29 25 22 22 23 22 22 22 22 23 25 27 29 29 26 24 22 22 22 21 19 18 18 18 18 16 15 15 14 14 14 13 12 12 11 12 13 15 17 16 15 16 18 17 17 19 18 18 18 17 15 15 15 18 23 25 25 25 24 21 20 21 22 23 22 21 22 24
Wind_Direction
116 113 107 103 100 99 94 88 80 73 68 56 51 50 49 52 50 51 57 57 63 69 76 89 97 98 97 95 97 91 84 77 71 75 82 95 102 94 101 111 110 114 119 117 109 109 109 111 118 115 112 109 106 104 103 104 104 104 103 103 101 95 85 72 61 56 57 54 50 45 30 15 8 4 359 359 358 358 358 357 356 355 355 355 354
113 110 106 102 99 93 86 86 81 73 65 53 47 45 41 41 39 35 40 52 63 65 70 86 95 101 101 98 99 91 85 85 79 78 81 89 101 99 97 106 107 107 113 114 109 110 112 118 122 120 124 122 117 118 117 115 116 115 110 109 100 82 70 55 45 40 42 38 28 18 3 357 354 352 350 353 354 353 352 351 350 351 352 351 351
112 108 106 103 96 91 83 82 80 79 70 61 51 39 35 30 26 20 29 53 63 69 78 91 99 102 103 100 95 89 84 89 92 88 84 88 101 106 98 99 108 109 107 106 107 116 121 122 119 126 140 135 137 146 136 135 133 135 150 151 158 340 340 355 6 357 2 2 359 352 345 345 345 345 346 347 347 345 346 347 346 346 347 347 349
114 103 101 99 93 90 83 78 75 77 68 57 40 33 30 21 22 21 40 66 73 79 95 111 104 103 108 100 91 87 84 85 89 88 90 95 104 113 113 106 108 113 113 105 109 123 129 128 122 140 166 165 171 180 173 191 197 204 215 218 234 252 274 291 301 312 319 325 332 330 330 334 336 340 341 339 338 338 340 342 342 342 343 344 346
111 99 98 97 93 87 80 78 63 47 41 34 25 30 33 25 27 30 60 96 102 102 162 135 106 103 103 95 90 87 84 85 85 87 95 103 109 117 123 130 130 119 121 126 134 136 116 111 129 166 193 211 219 215 210 224 236 240 246 248 252 256 260 267 275 283 292 300 306 311 318 323 326 330 332 330 331 334 336 337 339 340 342 344 346
112 103 97 94 96 90 82 79 66 43 15 10 22 32 43 36 28 36 66 106 117 117 139 121 109 108 90 87 89 86 85 82 78 86 94 99 113 119 123 138 148 148 147 145 142 142 118 106 155 206 220 239 243 243 241 243 252 258 263 268 272 273 273 274 276 281 290 296 300 309 316 318 318 320 324 326 327 331 335 338 340 342 344 343 346
132 120 106 105 106 99 95 78 68 57 11 3 18 32 40 32 24 37 73 106 121 130 128 113 113 110 91 88 91 88 85 76 69 85 93 99 112 117 124 132 143 151 162 182 163 144 141 160 202 223 230 244 247 253 261 257 261 267 269 271 273 274 276 277 276 280 286 293 302 310 310 310 313 315 320 323 322 328 336 342 342 340 340 342 353
159 153 130 137 123 104 108 86 54 62 42 13 18 26 25 25 30 40 70 85 133 155 135 121 119 113 105 102 96 90 87 78 74 80 84 99 117 122 131 130 143 154 159 174 180 164 171 222 227 238 236 244 245 244 255 255 258 263 268 271 272 270 272 275 276 277 282 287 295 300 299 302 309 312 316 317 317 324 330 335 333 332 338 349 9
178 181 163 179 168 125 113 111 106 78 74 27 21 27 17 14 26 61 79 76 174 153 127 124 119 109 104 98 96 92 88 78 77 82 89 108 128 139 144 145 157 163 164 165 165 181 261 308 248 249 246 246 244 243 249 253 255 257 263 269 272 270 270 275 278 277 280 285 290 293 294 297 301 303 306 306 309 314 319 327 330 333 349 359 0
190 196 191 207 215 207 172 139 162 141 110 91 51 30 17 15 7 62 68 54 26 65 88 98 93 95 94 86 88 91 93 90 88 96 115 128 138 154 154 160 171 168 172 173 162 174 209 273 285 257 251 251 244 247 244 244 253 260 266 268 271 272 272 275 276 276 279 282 283 283 283 285 286 290 292 292 296 300 310 326 330 338 0 356 358
198 206 206 206 216 218 209 186 185 173 175 162 90 18 15 40 75 43 44 38 27 43 62 77 79 77 71 75 92 110 119 123 133 140 147 142 149 166 171 170 178 181 184 189 186 180 189 216 241 229 241 263 260 254 250 246 251 258 266 271 271 270 269 269 266 267 271 273 271 266 268 272 274 280 284 287 291 295 307 323 333 5 11 8 26
202 210 211 212 215 213 208 205 211 207 221 239 194 335 21 51 68 16 21 18 46 54 58 61 78 63 44 85 118 134 145 160 185 176 168 160 158 171 180 176 178 188 193 199 205 203 203 215 224 215 235 266 272 269 264 259 260 260 261 265 267 263 260 259 259 259 261 262 260 257 260 265 272 279 282 286 288 292 304 311 311 78 79 73 66
208 212 212 215 212 210 209 200 215 217 184 275 280 312 15 47 49 9 353 60 83 82 84 46 109 173 52 133 142 149 161 178 200 195 183 175 169 172 180 184 185 189 194 206 218 221 222 224 231 229 223 245 267 278 274 270 265 260 258 258 258 256 254 253 253 254 256 257 255 256 260 265 274 282 283 286 288 288 289 281 228 187 165 147 134
213 214 214 213 208 207 207 202 213 216 171 206 265 304 354 30 38 11 324 155 109 80 98 133 266 109 46 166 164 164 177 208 213 201 191 184 181 181 183 189 186 184 197 218 234 234 233 232 236 244 236 243 258 265 269 269 261 258 258 258 253 250 250 251 251 251 253 254 254 259 265 271 281 288 284 282 284 279 256 229 206 195 192 189 194
216 215 214 213 211 209 208 205 207 210 199 189 221 309 348 10 18 326 286 204 149 118 111 291 321 55 82 220 171 164 176 205 213 206 204 192 195 193 190 205 194 189 222 238 244 242 239 236 233 236 242 250 251 254 257 250 259 269 269 261 256 251 249 249 251 255 258 254 251 257 265 276 285 288 282 275 271 256 218 210 208 201 204 209 211
218 217 215 214 215 215 217 216 210 211 213 195 198 261 302 290 257 250 273 264 139 123 111 5 3 46 292 5 59 130 130 136 163 177 202 193 201 200 191 221 206 195 237 251 254 254 244 235 230 229 235 247 253 258 254 250 272 289 284 269 260 250 248 247 246 251 259 259 258 263 270 276 278 275 273 269 255 232 213 215 213 210 213 213 215
219 220 218 218 219 220 222 221 223 220 216 215 217 227 236 245 248 243 266 307 32 96 109 93 76 49 356 15 27 75 57 30 66 127 210 209 208 205 199 238 218 199 236 253 255 255 246 235 232 233 235 241 248 255 257 254 271 288 287 282 278 262 251 251 247 243 248 255 263 271 279 279 269 256 262 261 245 231 222 221 219 219 219 215 218
218 220 220 221 222 222 222 220 223 221 217 221 222 228 240 245 250 253 262 302 1 55 113 119 106 91 319 7 349 358 19 2 10 46 338 261 237 218 208 239 228 209 233 252 251 248 248 239 234 238 238 242 246 250 259 256 256 256 254 266 274 273 263 259 258 253 249 249 253 263 276 283 272 255 258 254 244 237 231 229 227 226 224 220 223
215 217 218 221 222 221 221 220 221 221 218 221 223 227 231 225 230 247 258 242 186 158 160 129 110 204 237 274 309 335 352 350 356 6 11 34 352 288 224 230 234 226 235 249 245 238 242 241 241 241 238 245 248 250 261 259 262 266 258 263 271 274 270 266 267 264 257 251 248 254 266 275 270 258 257 255 249 245 241 239 236 234 231 228 230
213 215 216 218 220 220 219 220 221 222 218 221 227 229 223 214 217 223 231 223 187 192 221 194 238 168 152 295 304 322 320 327 348 345 333 350 15 6 347 274 266 254 248 258 254 240 235 234 244 252 249 251 249 254 267 262 265 269 272 285 291 280 272 269 267 266 261 256 254 256 262 266 263 255 255 256 254 252 249 247 245 242 239 237 239
214 216 217 216 217 218 218 220 221 222 222 223 227 225 222 220 216 217 223 225 205 197 209 234 268 274 78 311 307 314 301 310 330 315 318 336 358 5 344 270 272 279 271 273 274 267 258 244 248 255 258 261 256 257 264 265 271 266 266 287 301 289 277 270 265 265 263 260 256 256 257 258 257 255 255 256 256 257 256 254 252 249 247 245 246
216 218 219 218 217 217 217 220 220 222 225 225 224 222 222 224 223 224 223 225 217 206 211 220 242 263 270 273 284 293 297 310 302 294 327 328 310 315 317 326 339 334 274 282 286 276 269 263 260 257 256 260 260 259 261 260 263 261 267 285 295 287 280 274 268 266 264 262 259 257 257 256 255 255 255 256 257 259 259 259 257 254 251 249 250
218 218 219 218 218 218 217 219 220 222 225 225 224 221 220 220 221 223 225 227 224 220 225 226 226 238 244 245 258 270 275 282 286 299 316 308 308 313 326 351 348 337 328 294 287 280 271 265 264 264 262 262 259 257 257 254 256 265 275 284 287 282 279 276 272 269 265 263 261 258 257 257 255 255 255 256 257 259 260 260 259 257 255 253 253
216 217 218 217 217 219 220 220 220 222 225 225 225 223 221 219 217 220 223 223 224 226 232 232 228 233 241 239 243 259 269 275 284 296 304 314 322 310 320 346 334 321 330 306 293 289 279 271 266 264 262 262 261 256 254 253 256 266 272 274 277 278 277 276 275 272 267 264 262 260 258 257 256 256 255 256 256 257 258 259 259 258 256 255 255
213 216 217 216 215 218 220 220 221 223 226 228 229 227 225 222 220 220 222 223 223 225 233 237 233 234 246 250 247 257 264 267 279 290 296 300 296 296 316 331 317 314 324 310 307 305 288 275 270 266 261 258 259 254 254 256 256 263 269 269 272 274 274 276 277 277 273 270 267 265 263 261 259 258 257 257 256 256 256 256 256 256 255 255 255
211 214 215 215 215 217 219 220 223 225 229 233 235 234 230 228 227 225 223 225 225 226 232 237 238 237 243 251 255 263 268 270 272 277 286 287 288 301 316 317 308 308 308 297 296 297 294 285 270 266 262 257 257 254 256 260 258 264 270 270 271 273 273 272 273 274 274 273 272 270 268 266 263 261 259 258 256 255 255 254 254 254 254 254 254
211 211 212 213 215 216 218 219 223 226 230 233 235 235 234 231 230 229 226 225 224 227 231 233 236 236 236 241 250 256 259 264 267 268 279 288 294 304 309 306 304 306 305 300 292 285 286 285 273 260 259 256 253 253 261 265 259 264 271 270 267 269 270 267 265 267 268 269 270 269 269 268 266 264 262 260 258 257 255 254 254 254 254 254 254
209 209 209 211 213 216 219 221 223 226 229 231 231 231 233 232 231 229 227 226 224 225 229 232 234 234 234 235 240 249 251 253 261 263 270 279 283 287 286 285 294 303 306 305 302 297 286 275 265 234 234 242 238 251 274 279 270 270 277 276 269 267 268 268 263 261 263 265 266 266 266 266 266 265 263 261 260 259 257 256 255 254 254 254 254
210 209 208 208 211 215 220 223 224 226 228 230 230 229 229 231 231 229 227 226 225 226 229 233 233 231 232 230 231 241 246 245 251 254 255 259 263 265 265 267 275 287 299 304 303 305 301 290 278 246 240 252 257 270 280 278 275 280 280 277 273 268 269 273 272 267 264 263 264 265 265 265 264 264 263 262 261 260 259 258 256 255 254 254 254
210 210 208 207 209 213 217 221 223 225 226 227 228 227 228 231 231 230 229 226 225 227 228 231 234 232 231 231 230 235 238 238 244 246 243 241 246 251 252 254 256 261 278 293 294 297 298 295 291 284 274 270 270 279 283 278 280 287 285 274 270 270 271 276 278 275 270 267 264 263 264 264 264 263 263 262 262 261 260 259 258 256 255 255 254
208 207 207 207 207 210 215 219 221 224 225 226 226 226 226 228 230 230 229 225 225 229 229 229 232 233 232 231 231 235 239 240 244 246 240 236 240 245 245 245 245 247 260 273 279 285 290 292 295 295 289 281 278 280 283 282 282 287 289 281 274 277 279 277 276 275 272 268 267 266 264 264 264 263 263 262 262 261 260 259 259 258 257 256 255
206 206 207 208 208 209 213 217 219 221 223 224 225 224 225 225 227 229 228 224 224 229 232 230 230 231 232 232 232 233 236 239 243 245 242 238 239 242 243 242 242 242 246 255 265 273 278 282 286 287 286 285 283 278 278 282 283 285 290 290 287 286 282 276 275 278 278 275 271 268 267 265 265 264 264 263 262 261 260 259 259 258 258 257 256
205 205 207 209 210 211 213 214 216 218 219 221 222 223 224 223 222 224 225 224 225 230 233 232 231 231 232 233 234 234 235 236 239 243 243 241 240 241 241 240 241 242 239 243 258 271 276 276 277 280 283 284 282 276 274 278 280 278 282 287 288 285 276 270 269 273 279 283 281 276 272 268 266 265 264 264 263 262 261 261 260 259 259 258 257
204 205 207 209 211 212 213 214 214 214 215 217 219 222 223 222 220 221 222 222 224 227 231 231 231 231 233 235 236 236 235 235 238 243 245 244 243 243 242 240 244 246 241 240 253 268 276 277 277 279 280 278 277 275 271 273 277 274 271 273 274 273 270 268 267 266 272 280 284 283 280 275 271 268 265 264 263 263 263 262 261 260 260 259 258
204 206 208 209 210 211 212 213 212 212 213 214 217 219 221 220 219 220 221 221 222 224 227 230 231 231 232 235 237 237 234 232 235 241 245 245 245 246 246 245 248 251 247 244 252 267 279 284 285 284 285 282 279 277 274 273 275 274 272 272 271 267 266 267 267 267 271 276 281 284 284 282 278 274 271 269 267 266 266 265 264 263 262 261 259
204 206 208 209 210 209 211 211 210 211 212 213 214 216 217 218 219 221 222 222 223 225 227 230 231 231 232 234 237 237 233 232 233 238 242 242 239 241 245 246 248 251 252 252 257 268 277 284 286 285 287 287 284 283 282 279 277 273 270 272 272 270 270 270 267 267 272 279 284 287 287 287 284 281 279 277 276 274 272 270 268 266 265 263 261
205 205 206 208 208 208 209 210 210 211 211 211 212 214 216 216 218 221 222 223 224 227 229 230 230 230 233 235 238 237 234 233 233 235 239 239 236 237 241 244 245 249 255 258 261 266 272 279 285 285 285 285 286 288 288 287 285 280 275 272 271 271 273 275 273 270 274 280 286 289 292 294 293 292 288 284 281 279 276 274 273 271 268 266 264
205 205 205 206 207 208 208 210 211 212 212 211 211 213 215 216 217 219 221 224 226 228 230 231 230 231 233 235 237 237 235 235 235 235 235 235 236 238 240 242 243 247 253 256 258 263 269 276 281 284 285 286 288 290 288 288 287 285 285 285 284 279 275 274 274 274 276 279 283 287 290 292 292 292 290 289 286 282 279 277 275 274 272 269 267
204 205 205 205 206 207 208 210 212 212 211 210 211 212 215 216 217 218 220 223 226 228 231 231 232 232 234 235 235 234 234 236 236 235 233 234 240 243 241 241 243 247 252 256 258 262 268 273 277 281 286 289 290 289 287 286 283 281 284 289 291 289 282 276 274 279 284 286 288 290 292 294 294 293 292 290 288 286 284 280 275 273 272 270 267
204 205 206 205 205 206 208 211 212 211 210 210 210 211 213 214 216 218 220 223 227 229 231 232 233 234 236 237 237 236 235 236 236 234 230 232 239 245 245 241 240 243 249 256 261 265 269 272 276 281 286 288 289 288 287 285 282 278 279 287 292 294 291 283 278 284 289 290 293 295 296 300 302 300 299 293 288 286 285 281 276 270 270 271 268
205 206 207 207 205 206 208 210 211 211 210 210 210 211 211 212 215 218 220 223 226 229 231 234 235 235 237 239 240 239 237 238 241 241 236 232 235 241 244 242 241 244 249 253 258 262 266 270 274 279 283 284 283 284 286 286 285 284 287 289 291 293 295 292 287 289 289 289 294 293 290 296 299 297 297 292 286 284 282 280 274 266 267 273 273
204 205 207 208 208 208 208 209 209 210 211 212 215 216 215 212 212 216 220 222 225 227 230 233 236 236 237 240 242 242 242 244 248 252 251 247 248 251 250 246 244 246 250 253 253 257 262 267 272 276 278 279 280 283 286 286 287 289 291 292 292 296 301 300 298 300 296 289 294 294 291 295 297 296 292 284 280 278 275 274 272 268 270 274 274
203 204 205 207 209 210 210 210 209 210 212 214 219 223 224 220 215 212 217 221 223 226 229 232 235 237 238 240 241 242 243 246 251 257 261 260 259 260 259 257 253 250 250 252 252 255 258 263 266 269 272 275 279 283 284 285 289 292 293 295 296 300 303 301 301 305 305 298 300 300 297 295 293 293 289 282 276 273 267 267 269 269 271 274 274
202 203 205 206 209 211 212 212 212 213 215 217 222 228 229 228 224 218 217 221 223 226 229 231 234 236 238 238 239 239 240 243 247 253 261 264 264 264 264 264 262 258 255 253 252 253 256 261 264 265 269 274 277 279 280 286 294 297 297 298 299 298 298 298 298 301 305 308 307 301 298 297 296 290 287 283 279 277 276 277 275 270 270 273 275
201 203 206 206 208 210 212 215 216 217 218 219 225 231 232 232 231 226 222 223 226 228 229 231 233 234 234 234 236 236 237 241 244 245 250 259 265 267 268 269 268 266 263 258 253 251 252 255 260 262 264 268 270 272 277 287 296 298 297 299 302 303 299 297 298 299 303 307 304 296 292 296 298 290 285 285 282 280 281 282 278 273 272 273 275
202 204 206 206 208 210 212 215 218 221 222 223 227 233 233 233 233 231 226 225 229 231 231 232 233 233 233 232 233 234 235 236 240 242 244 249 254 259 264 266 267 268 268 266 262 257 253 250 252 255 257 260 265 271 278 285 289 291 295 298 303 306 301 296 294 296 298 302 300 290 284 289 294 289 286 289 288 283 282 281 279 276 275 275 275
203 204 206 207 208 210 212 216 220 224 226 226 228 233 235 234 234 232 229 227 229 233 233 234 235 234 234 233 234 236 236 234 236 238 240 242 245 249 252 255 258 259 261 262 262 262 258 252 251 251 254 259 264 270 276 281 283 286 291 294 297 299 298 295 293 293 296 300 297 286 280 286 293 293 290 293 294 290 287 286 284 281 279 278 276
205 205 207 209 210 211 213 216 220 225 228 227 228 232 234 234 233 230 228 227 229 232 234 234 234 234 234 233 234 236 236 236 238 239 239 240 244 250 253 254 256 257 257 256 255 253 251 252 252 252 255 263 270 274 279 281 282 285 288 289 291 294 295 295 293 292 296 301 299 289 285 291 299 298 295 295 294 291 290 289 287 284 282 282 280
206 206 208 210 211 212 214 215 218 223 227 227 228 231 233 232 230 226 224 225 228 232 233 234 234 234 234 233 233 236 237 238 240 241 242 243 244 249 255 257 258 260 260 260 260 258 256 258 262 262 264 271 279 284 284 280 280 284 282 280 284 289 290 291 293 295 299 301 300 294 288 292 299 300 297 296 293 289 289 290 289 288 287 285 283
209 208 209 210 212 213 215 216 217 220 225 226 227 230 232 232 230 224 220 222 227 230 232 234 234 235 237 237 236 236 237 238 240 242 243 244 243 245 252 256 258 259 260 261 263 266 268 269 269 269 271 274 279 283 282 279 282 283 275 270 279 289 290 289 292 298 299 297 299 298 291 292 299 302 301 301 297 290 288 291 295 297 296 294 291
209 210 210 211 213 214 216 218 218 220 224 227 228 229 231 232 230 224 219 220 226 228 230 233 234 235 238 240 240 240 239 239 239 240 243 244 242 242 247 253 256 258 261 264 265 269 274 273 269 272 279 282 285 288 287 288 291 292 285 283 288 288 285 285 289 294 297 299 306 309 300 298 303 306 306 306 303 298 299 300 303 306 308 309 304